EXS14RD EGKK-LSGG

Flight info

Callsign EXS14RD
Flight time 1h 24m
Altitude 23000
Route BOGNA L612 XAMAB/N0462F310 UL612 VEULE DCT PEKIM DCT PILUL DCT PIMUP/N0443F270 DCT PIXIS DCT PIBAT DCT LUSAR
Aircraft B38M/M-SDE1FGHILORVWXY/HB1

Departure

Time 2026-04-15 15:06
Airport London Gatwick Airport (EGKK)

Arrival

Time 2026-04-15 16:31
Airport Geneva International Airport (LSGG)
Time Latitude Longitude Altitude Speed Heading
2026-04-15 14:34 51.15104 -0.19456 216 ft 0 kts 78°
2026-04-15 14:53 51.15102 -0.19469 216 ft 2 kts 79°
2026-04-15 14:53 51.15099 -0.19495 213 ft 2 kts 83°
2026-04-15 14:54 51.15098 -0.19521 210 ft 2 kts 89°
2026-04-15 14:54 51.15098 -0.19547 205 ft 2 kts 100°
2026-04-15 14:54 51.15104 -0.19571 215 ft 2 kts 131°
2026-04-15 14:54 51.15115 -0.19583 208 ft 1 kts 171°
2026-04-15 14:55 51.15116 -0.19584 208 ft 0 kts 170°
2026-04-15 14:59 51.15116 -0.19583 208 ft 0 kts 170°
2026-04-15 14:59 51.15105 -0.19580 216 ft 4 kts 169°
2026-04-15 14:59 51.15056 -0.19562 208 ft 9 kts 164°
2026-04-15 14:59 51.15046 -0.19554 214 ft 0 kts 144°
2026-04-15 15:00 51.15033 -0.19520 208 ft 7 kts 117°
2026-04-15 15:00 51.15037 -0.19431 209 ft 13 kts 79°
2026-04-15 15:00 51.15065 -0.19211 206 ft 27 kts 77°
2026-04-15 15:00 51.15099 -0.18928 209 ft 24 kts 80°
2026-04-15 15:01 51.15127 -0.18690 211 ft 19 kts 77°
2026-04-15 15:01 51.15153 -0.18491 206 ft 17 kts 79°
2026-04-15 15:01 51.15173 -0.18309 208 ft 16 kts 79°
2026-04-15 15:01 51.15199 -0.18152 213 ft 13 kts 69°
2026-04-15 15:02 51.15223 -0.18019 213 ft 12 kts 75°
2026-04-15 15:02 51.15243 -0.17898 211 ft 10 kts 77°
2026-04-15 15:02 51.15263 -0.17754 215 ft 15 kts 79°
2026-04-15 15:02 51.15281 -0.17600 207 ft 14 kts 79°
2026-04-15 15:03 51.15299 -0.17446 208 ft 10 kts 84°
2026-04-15 15:03 51.15287 -0.17354 211 ft 4 kts 125°
2026-04-15 15:03 51.15255 -0.17326 213 ft 12 kts 151°
2026-04-15 15:03 51.15177 -0.17216 214 ft 15 kts 118°
2026-04-15 15:04 51.15181 -0.17123 213 ft 6 kts 63°
2026-04-15 15:04 51.15205 -0.17057 208 ft 6 kts 64°
2026-04-15 15:04 51.15210 -0.17022 203 ft 6 kts 80°
2026-04-15 15:04 51.15223 -0.16888 205 ft 16 kts 84°
2026-04-15 15:05 51.15141 -0.16812 209 ft 18 kts 216°
2026-04-15 15:05 51.15101 -0.16928 204 ft 12 kts 256°
2026-04-15 15:05 51.15053 -0.17278 210 ft 56 kts 257°
2026-04-15 15:05 51.14931 -0.18106 206 ft 96 kts 257°
2026-04-15 15:06 51.14616 -0.20740 367 ft 133 kts 255°
2026-04-15 15:06 51.14529 -0.21714 573 ft 134 kts 255°
2026-04-15 15:06 51.14450 -0.23180 1168 ft 143 kts 261°
2026-04-15 15:07 51.14272 -0.24713 1823 ft 136 kts 236°
2026-04-15 15:07 51.13885 -0.26111 2302 ft 141 kts 248°
2026-04-15 15:07 51.13630 -0.27622 2488 ft 146 kts 250°
2026-04-15 15:07 51.13410 -0.29142 2496 ft 141 kts 250°
2026-04-15 15:08 51.13195 -0.30676 2491 ft 139 kts 251°
2026-04-15 15:08 51.12984 -0.32198 2489 ft 141 kts 251°
2026-04-15 15:08 51.12772 -0.33738 2489 ft 142 kts 251°
2026-04-15 15:08 51.12560 -0.35269 2495 ft 141 kts 251°
2026-04-15 15:09 51.12349 -0.36798 2487 ft 142 kts 251°
2026-04-15 15:09 51.12132 -0.38344 2537 ft 145 kts 251°
2026-04-15 15:09 51.11875 -0.39890 2829 ft 143 kts 240°
2026-04-15 15:09 51.11289 -0.41142 3146 ft 141 kts 221°
2026-04-15 15:10 51.10429 -0.41907 3448 ft 145 kts 201°
2026-04-15 15:10 51.09414 -0.42039 3721 ft 153 kts 183°
2026-04-15 15:10 51.08346 -0.41891 3982 ft 156 kts 184°
2026-04-15 15:10 51.07277 -0.41752 3995 ft 152 kts 184°
2026-04-15 15:11 51.06203 -0.41619 4091 ft 156 kts 184°
2026-04-15 15:11 51.05110 -0.41481 4367 ft 158 kts 184°
2026-04-15 15:11 51.04004 -0.41340 4675 ft 160 kts 184°
2026-04-15 15:11 51.02885 -0.41197 4958 ft 161 kts 184°
2026-04-15 15:12 51.01776 -0.41054 4992 ft 159 kts 184°
2026-04-15 15:12 51.00672 -0.40915 5006 ft 159 kts 184°
2026-04-15 15:12 50.99543 -0.40775 5009 ft 163 kts 183°
2026-04-15 15:12 50.98416 -0.40631 5076 ft 168 kts 184°
2026-04-15 15:13 50.97232 -0.40483 5492 ft 173 kts 184°
2026-04-15 15:13 50.96013 -0.40328 5936 ft 178 kts 184°
2026-04-15 15:13 50.94774 -0.40169 6016 ft 177 kts 184°
2026-04-15 15:13 50.93540 -0.40011 6017 ft 177 kts 184°
2026-04-15 15:14 50.92310 -0.39855 6022 ft 177 kts 184°
2026-04-15 15:14 50.91078 -0.39700 6029 ft 178 kts 184°
2026-04-15 15:14 50.89844 -0.39544 6014 ft 178 kts 183°
2026-04-15 15:14 50.88610 -0.39387 6025 ft 178 kts 183°
2026-04-15 15:15 50.87376 -0.39231 6021 ft 178 kts 184°
2026-04-15 15:15 50.86137 -0.39075 6018 ft 178 kts 184°
2026-04-15 15:15 50.84902 -0.38919 6020 ft 179 kts 184°
2026-04-15 15:15 50.83667 -0.38734 6014 ft 179 kts 178°
2026-04-15 15:16 50.82484 -0.37911 6030 ft 194 kts 157°
2026-04-15 15:16 50.81350 -0.36716 6032 ft 196 kts 156°
2026-04-15 15:16 50.80217 -0.35527 6028 ft 195 kts 157°
2026-04-15 15:16 50.79085 -0.34353 6026 ft 195 kts 157°
2026-04-15 15:17 50.77946 -0.33173 6035 ft 195 kts 157°
2026-04-15 15:17 50.76812 -0.31999 6027 ft 195 kts 157°
2026-04-15 15:17 50.75687 -0.30835 6034 ft 198 kts 157°
2026-04-15 15:17 50.74531 -0.29640 6038 ft 199 kts 157°
2026-04-15 15:18 50.73370 -0.28438 6035 ft 199 kts 157°
2026-04-15 15:18 50.72210 -0.27238 6032 ft 200 kts 157°
2026-04-15 15:18 50.71044 -0.26034 6034 ft 200 kts 157°
2026-04-15 15:18 50.69868 -0.24822 6149 ft 204 kts 157°
2026-04-15 15:19 50.68677 -0.23573 6293 ft 207 kts 156°
2026-04-15 15:19 50.67468 -0.22296 6356 ft 212 kts 156°
2026-04-15 15:19 50.66211 -0.20979 6606 ft 221 kts 156°
2026-04-15 15:19 50.64920 -0.19623 7009 ft 226 kts 156°
2026-04-15 15:20 50.63606 -0.18247 7283 ft 234 kts 155°
2026-04-15 15:20 50.62223 -0.16798 7563 ft 242 kts 155°
2026-04-15 15:20 50.60806 -0.15312 7880 ft 247 kts 155°
2026-04-15 15:20 50.59363 -0.13799 8241 ft 251 kts 155°
2026-04-15 15:21 50.57906 -0.12275 8603 ft 253 kts 155°
2026-04-15 15:21 50.56437 -0.10739 8971 ft 254 kts 155°
2026-04-15 15:21 50.54951 -0.09190 9253 ft 259 kts 155°
2026-04-15 15:21 50.53427 -0.07605 9416 ft 267 kts 155°
2026-04-15 15:22 50.51863 -0.05975 9628 ft 272 kts 155°
2026-04-15 15:22 50.50272 -0.04314 9853 ft 276 kts 155°
2026-04-15 15:22 50.48663 -0.02638 10070 ft 279 kts 155°
2026-04-15 15:22 50.47042 -0.00953 10283 ft 281 kts 155°
2026-04-15 15:23 50.45399 0.00752 10409 ft 286 kts 154°
2026-04-15 15:23 50.43745 0.02467 10516 ft 290 kts 154°
2026-04-15 15:23 50.42050 0.04227 10623 ft 293 kts 154°
2026-04-15 15:23 50.40340 0.06000 10762 ft 296 kts 154°
2026-04-15 15:24 50.38612 0.07790 10963 ft 298 kts 154°
2026-04-15 15:24 50.36871 0.09588 11059 ft 303 kts 154°
2026-04-15 15:24 50.35098 0.11416 11112 ft 306 kts 154°
2026-04-15 15:24 50.33307 0.13261 11118 ft 310 kts 154°
2026-04-15 15:25 50.31495 0.15128 11125 ft 313 kts 154°
2026-04-15 15:25 50.29667 0.17010 11126 ft 315 kts 154°
2026-04-15 15:25 50.27849 0.18879 11127 ft 318 kts 154°
2026-04-15 15:25 50.25997 0.20781 11124 ft 319 kts 154°
2026-04-15 15:26 50.24130 0.22697 11130 ft 321 kts 154°
2026-04-15 15:26 50.22264 0.24610 11148 ft 321 kts 154°
2026-04-15 15:26 50.20392 0.26527 11160 ft 322 kts 154°
2026-04-15 15:26 50.18517 0.28452 11140 ft 323 kts 153°
2026-04-15 15:27 50.16643 0.30386 11470 ft 323 kts 153°
2026-04-15 15:27 50.14755 0.32329 12317 ft 327 kts 153°
2026-04-15 15:27 50.12831 0.34301 13062 ft 334 kts 154°
2026-04-15 15:27 50.10859 0.36318 13735 ft 343 kts 153°
2026-04-15 15:28 50.08853 0.38377 14420 ft 349 kts 153°
2026-04-15 15:28 50.06823 0.40458 14980 ft 358 kts 153°
2026-04-15 15:28 50.04727 0.42602 15629 ft 364 kts 153°
2026-04-15 15:28 50.02602 0.44775 16326 ft 368 kts 153°
2026-04-15 15:29 50.00443 0.46980 17011 ft 371 kts 153°
2026-04-15 15:29 49.98275 0.49190 17738 ft 374 kts 153°
2026-04-15 15:29 49.96084 0.51421 18422 ft 378 kts 153°
2026-04-15 15:29 49.93869 0.53674 19034 ft 381 kts 153°
2026-04-15 15:30 49.91645 0.55934 19651 ft 384 kts 154°
2026-04-15 15:30 49.89403 0.58211 20272 ft 386 kts 154°
2026-04-15 15:30 49.87182 0.60462 20888 ft 388 kts 154°
2026-04-15 15:30 49.84983 0.62968 21495 ft 398 kts 145°
2026-04-15 15:31 49.82964 0.65936 22102 ft 402 kts 144°
2026-04-15 15:31 49.80925 0.68931 22701 ft 404 kts 144°
2026-04-15 15:31 49.78875 0.71901 23106 ft 403 kts 145°
2026-04-15 15:31 49.76833 0.74855 23100 ft 402 kts 145°
2026-04-15 15:32 49.74849 0.77741 23106 ft 402 kts 145°
2026-04-15 15:32 49.72806 0.80705 23103 ft 404 kts 145°
2026-04-15 15:32 49.70752 0.83678 23100 ft 403 kts 145°
2026-04-15 15:32 49.68708 0.86635 23103 ft 403 kts 145°
2026-04-15 15:33 49.66657 0.89596 23110 ft 406 kts 145°
2026-04-15 15:33 49.64549 0.92624 23114 ft 422 kts 144°
2026-04-15 15:33 49.62375 0.95753 23129 ft 429 kts 144°
2026-04-15 15:33 49.60218 0.98878 23129 ft 432 kts 144°
2026-04-15 15:34 49.58017 1.02047 23134 ft 432 kts 144°
2026-04-15 15:34 49.55821 1.05193 23133 ft 432 kts 144°
2026-04-15 15:34 49.53623 1.08338 23136 ft 432 kts 144°
2026-04-15 15:34 49.51419 1.11496 23115 ft 433 kts 144°
2026-04-15 15:35 49.49196 1.14676 23130 ft 434 kts 144°
2026-04-15 15:35 49.46989 1.17829 23134 ft 434 kts 144°
2026-04-15 15:35 49.44775 1.20986 23138 ft 434 kts 144°
2026-04-15 15:35 49.42554 1.24148 23139 ft 434 kts 144°
2026-04-15 15:36 49.40334 1.27307 23139 ft 434 kts 144°
2026-04-15 15:36 49.38122 1.30450 23141 ft 434 kts 144°
2026-04-15 15:36 49.35924 1.33569 23096 ft 435 kts 144°
2026-04-15 15:36 49.33786 1.36593 23125 ft 441 kts 144°
2026-04-15 15:37 49.31547 1.39766 23128 ft 437 kts 144°
2026-04-15 15:37 49.29304 1.42939 23115 ft 438 kts 144°
2026-04-15 15:37 49.27084 1.46070 23130 ft 441 kts 144°
2026-04-15 15:37 49.24833 1.49243 23131 ft 440 kts 144°
2026-04-15 15:38 49.22592 1.52400 23133 ft 440 kts 144°
2026-04-15 15:38 49.20331 1.55578 23140 ft 441 kts 144°
2026-04-15 15:38 49.18068 1.58756 23140 ft 440 kts 144°
2026-04-15 15:38 49.15817 1.61914 23158 ft 440 kts 144°
2026-04-15 15:39 49.13554 1.65083 23140 ft 441 kts 144°
2026-04-15 15:39 49.11289 1.68253 23146 ft 440 kts 144°
2026-04-15 15:39 49.09083 1.71335 23140 ft 440 kts 144°
2026-04-15 15:39 49.06899 1.74381 23139 ft 440 kts 144°
2026-04-15 15:40 49.04615 1.77559 23148 ft 445 kts 143°
2026-04-15 15:40 49.02327 1.80745 23150 ft 445 kts 143°
2026-04-15 15:40 49.00071 1.83887 23151 ft 445 kts 143°
2026-04-15 15:40 48.97780 1.87067 23150 ft 445 kts 143°
2026-04-15 15:41 48.95493 1.90235 23154 ft 445 kts 143°
2026-04-15 15:41 48.93205 1.93403 23155 ft 444 kts 143°
2026-04-15 15:41 48.90924 1.96558 23155 ft 445 kts 143°
2026-04-15 15:41 48.88633 1.99722 23156 ft 445 kts 143°
2026-04-15 15:42 48.86342 2.02880 23155 ft 446 kts 143°
2026-04-15 15:42 48.84031 2.06063 23154 ft 445 kts 143°
2026-04-15 15:42 48.81743 2.09212 23154 ft 445 kts 143°
2026-04-15 15:42 48.79441 2.12374 23154 ft 445 kts 143°
2026-04-15 15:43 48.77164 2.15498 23155 ft 445 kts 143°
2026-04-15 15:43 48.74872 2.18638 23139 ft 445 kts 143°
2026-04-15 15:43 48.72575 2.21780 23153 ft 446 kts 143°
2026-04-15 15:43 48.70271 2.24931 23153 ft 445 kts 143°
2026-04-15 15:44 48.67972 2.28071 23181 ft 445 kts 143°
2026-04-15 15:44 48.65674 2.31203 23181 ft 444 kts 143°
2026-04-15 15:44 48.63375 2.34332 23180 ft 445 kts 143°
2026-04-15 15:44 48.61078 2.37455 23181 ft 447 kts 143°
2026-04-15 15:45 48.58757 2.40607 23176 ft 446 kts 143°
2026-04-15 15:45 48.56441 2.43751 23177 ft 446 kts 143°
2026-04-15 15:45 48.54128 2.46883 23176 ft 447 kts 143°
2026-04-15 15:45 48.51846 2.49968 23178 ft 447 kts 143°
2026-04-15 15:46 48.49525 2.53104 23178 ft 447 kts 143°
2026-04-15 15:46 48.47206 2.56235 23178 ft 447 kts 143°
2026-04-15 15:46 48.44887 2.59360 23160 ft 447 kts 143°
2026-04-15 15:46 48.42556 2.62496 23180 ft 449 kts 143°
2026-04-15 15:47 48.40222 2.65635 23168 ft 449 kts 143°
2026-04-15 15:47 48.37882 2.68775 23177 ft 451 kts 143°
2026-04-15 15:47 48.35546 2.71908 23175 ft 450 kts 143°
2026-04-15 15:47 48.33199 2.75051 23180 ft 450 kts 143°
2026-04-15 15:48 48.30859 2.78180 23179 ft 450 kts 143°
2026-04-15 15:48 48.28517 2.81309 23181 ft 450 kts 143°
2026-04-15 15:48 48.26114 2.84293 23181 ft 447 kts 147°
2026-04-15 15:48 48.23687 2.87091 23181 ft 447 kts 147°
2026-04-15 15:49 48.21205 2.89936 23183 ft 448 kts 147°
2026-04-15 15:49 48.18733 2.92799 23167 ft 448 kts 147°
2026-04-15 15:49 48.16262 2.95671 23189 ft 451 kts 147°
2026-04-15 15:49 48.13772 2.98547 23171 ft 450 kts 147°
2026-04-15 15:50 48.11282 3.01406 23177 ft 452 kts 146°
2026-04-15 15:50 48.08768 3.04246 23170 ft 450 kts 150°
2026-04-15 15:50 48.06008 3.06340 23180 ft 444 kts 160°
2026-04-15 15:50 48.03151 3.08131 23181 ft 444 kts 162°
2026-04-15 15:51 48.00288 3.09857 23184 ft 444 kts 161°
2026-04-15 15:51 47.97446 3.11638 23183 ft 444 kts 160°
2026-04-15 15:51 47.94598 3.13470 23175 ft 447 kts 160°
2026-04-15 15:51 47.91779 3.15255 23171 ft 445 kts 161°
2026-04-15 15:52 47.88917 3.17031 23173 ft 446 kts 161°
2026-04-15 15:52 47.86050 3.18815 23178 ft 446 kts 161°
2026-04-15 15:52 47.83193 3.20612 23172 ft 446 kts 161°
2026-04-15 15:52 47.80328 3.22412 23172 ft 446 kts 161°
2026-04-15 15:53 47.77473 3.24192 23178 ft 445 kts 161°
2026-04-15 15:53 47.74614 3.25969 23165 ft 446 kts 161°
2026-04-15 15:53 47.71746 3.27755 23171 ft 447 kts 161°
2026-04-15 15:53 47.68872 3.29548 23171 ft 447 kts 161°
2026-04-15 15:54 47.66007 3.31330 23172 ft 447 kts 161°
2026-04-15 15:54 47.64104 3.32510 23172 ft 447 kts 161°
2026-04-15 15:54 47.61230 3.34291 23171 ft 447 kts 161°
2026-04-15 15:54 47.57410 3.36656 23170 ft 450 kts 160°
2026-04-15 15:55 47.55467 3.37860 23171 ft 448 kts 160°
2026-04-15 15:55 47.52590 3.39639 23175 ft 450 kts 160°
2026-04-15 15:55 47.49694 3.41425 23174 ft 450 kts 160°
2026-04-15 15:55 47.46840 3.43186 23175 ft 450 kts 160°
2026-04-15 15:56 47.43942 3.44972 23176 ft 451 kts 160°
2026-04-15 15:56 47.41045 3.46754 23174 ft 451 kts 160°
2026-04-15 15:56 47.38144 3.48536 23174 ft 451 kts 160°
2026-04-15 15:56 47.35250 3.50313 23175 ft 451 kts 160°
2026-04-15 15:57 47.32356 3.52087 23162 ft 451 kts 160°
2026-04-15 15:57 47.29462 3.53859 23175 ft 452 kts 160°
2026-04-15 15:57 47.26551 3.55640 23174 ft 452 kts 160°
2026-04-15 15:57 47.23647 3.57414 23174 ft 452 kts 160°
2026-04-15 15:58 47.20744 3.59185 23174 ft 452 kts 160°
2026-04-15 15:58 47.17829 3.60962 23174 ft 452 kts 160°
2026-04-15 15:58 47.14926 3.62729 23177 ft 452 kts 160°
2026-04-15 15:58 47.12014 3.64499 23171 ft 452 kts 160°
2026-04-15 15:59 47.09202 3.66206 23171 ft 453 kts 160°
2026-04-15 15:59 47.06293 3.67971 23170 ft 452 kts 160°
2026-04-15 15:59 47.03380 3.69737 23174 ft 452 kts 160°
2026-04-15 15:59 47.00469 3.71498 23174 ft 453 kts 160°
2026-04-15 16:00 46.97556 3.73258 23173 ft 453 kts 160°
2026-04-15 16:00 46.94721 3.75240 23175 ft 457 kts 148°
2026-04-15 16:00 46.92491 3.78355 23196 ft 464 kts 128°
2026-04-15 16:00 46.91000 3.82583 23189 ft 469 kts 111°
2026-04-15 16:01 46.90072 3.87154 23192 ft 469 kts 105°
2026-04-15 16:01 46.89334 3.91800 23193 ft 469 kts 104°
2026-04-15 16:01 46.88569 3.96369 23191 ft 469 kts 107°
2026-04-15 16:01 46.87523 4.00870 23193 ft 468 kts 113°
2026-04-15 16:02 46.86245 4.05242 23189 ft 467 kts 116°
2026-04-15 16:02 46.84904 4.09575 23186 ft 467 kts 114°
2026-04-15 16:02 46.83709 4.13991 23186 ft 467 kts 111°
2026-04-15 16:02 46.82619 4.18454 23188 ft 467 kts 111°
2026-04-15 16:03 46.81464 4.22869 23189 ft 467 kts 113°
2026-04-15 16:03 46.80395 4.27353 23193 ft 468 kts 104°
2026-04-15 16:03 46.79682 4.31995 23187 ft 469 kts 103°
2026-04-15 16:03 46.79028 4.36647 23187 ft 469 kts 102°
2026-04-15 16:04 46.78376 4.41307 23186 ft 468 kts 102°
2026-04-15 16:04 46.77697 4.45896 23188 ft 468 kts 103°
2026-04-15 16:04 46.76998 4.50544 23191 ft 468 kts 103°
2026-04-15 16:04 46.76315 4.55191 23184 ft 468 kts 102°
2026-04-15 16:05 46.75640 4.59841 23186 ft 468 kts 102°
2026-04-15 16:05 46.74955 4.64480 23189 ft 467 kts 103°
2026-04-15 16:05 46.74262 4.69107 23188 ft 467 kts 103°
2026-04-15 16:05 46.73571 4.73737 23186 ft 468 kts 103°
2026-04-15 16:06 46.72881 4.78373 23190 ft 468 kts 103°
2026-04-15 16:06 46.72189 4.83009 23189 ft 468 kts 103°
2026-04-15 16:06 46.71492 4.87643 23188 ft 468 kts 102°
2026-04-15 16:06 46.70795 4.92257 23187 ft 465 kts 102°
2026-04-15 16:07 46.70100 4.96862 23189 ft 466 kts 102°
2026-04-15 16:07 46.69410 5.01424 23190 ft 466 kts 102°
2026-04-15 16:07 46.68011 5.10611 22663 ft 459 kts 102°
2026-04-15 16:08 46.67328 5.15083 22199 ft 446 kts 102°
2026-04-15 16:08 46.66661 5.19439 21647 ft 436 kts 102°
2026-04-15 16:08 46.66019 5.23692 21249 ft 424 kts 102°
2026-04-15 16:08 46.65409 5.27778 20452 ft 404 kts 102°
2026-04-15 16:09 46.64808 5.31760 19584 ft 402 kts 102°
2026-04-15 16:09 46.64209 5.35700 19174 ft 394 kts 102°
2026-04-15 16:09 46.63621 5.39562 18716 ft 388 kts 102°
2026-04-15 16:09 46.63043 5.43360 18309 ft 380 kts 102°
2026-04-15 16:10 46.62478 5.47062 18040 ft 369 kts 102°
2026-04-15 16:10 46.61928 5.50644 17749 ft 354 kts 102°
2026-04-15 16:10 46.61388 5.54095 16975 ft 345 kts 103°
2026-04-15 16:10 46.60866 5.57424 16187 ft 340 kts 103°
2026-04-15 16:11 46.60346 5.60759 15943 ft 332 kts 103°
2026-04-15 16:11 46.59843 5.63982 15763 ft 325 kts 103°
2026-04-15 16:11 46.59341 5.67184 15345 ft 325 kts 103°
2026-04-15 16:11 46.58837 5.70384 14718 ft 327 kts 103°
2026-04-15 16:12 46.58331 5.73603 14349 ft 324 kts 103°
2026-04-15 16:12 46.57829 5.76787 13986 ft 322 kts 103°
2026-04-15 16:12 46.57289 5.79935 13580 ft 319 kts 111°
2026-04-15 16:12 46.56071 5.82556 13200 ft 313 kts 139°
2026-04-15 16:13 46.54337 5.84455 12794 ft 310 kts 148°
2026-04-15 16:13 46.52532 5.86077 12381 ft 309 kts 150°
2026-04-15 16:13 46.50705 5.87792 11979 ft 307 kts 146°
2026-04-15 16:13 46.48979 5.89578 11555 ft 303 kts 145°
2026-04-15 16:14 46.47268 5.91345 11223 ft 300 kts 147°
2026-04-15 16:14 46.45575 5.93033 10889 ft 298 kts 147°
2026-04-15 16:14 46.43872 5.94721 10555 ft 296 kts 147°
2026-04-15 16:14 46.42179 5.96415 10216 ft 294 kts 147°
2026-04-15 16:15 46.40504 5.98097 9907 ft 290 kts 147°
2026-04-15 16:15 46.38847 5.99754 9577 ft 287 kts 147°
2026-04-15 16:15 46.37218 6.01381 8939 ft 286 kts 146°
2026-04-15 16:15 46.35549 6.03034 8349 ft 292 kts 149°
2026-04-15 16:16 46.33661 6.03833 8197 ft 279 kts 184°
2026-04-15 16:16 46.31921 6.03009 8202 ft 261 kts 218°
2026-04-15 16:16 46.30754 6.01120 8190 ft 247 kts 236°
2026-04-15 16:16 46.29752 5.99065 8188 ft 246 kts 232°
2026-04-15 16:17 46.28651 5.97274 8183 ft 247 kts 225°
2026-04-15 16:17 46.27411 5.95545 7998 ft 247 kts 224°
2026-04-15 16:17 46.26180 5.93813 7737 ft 247 kts 225°
2026-04-15 16:17 46.24969 5.92041 7481 ft 247 kts 226°
2026-04-15 16:18 46.23763 5.90268 7273 ft 247 kts 226°
2026-04-15 16:18 46.22556 5.88510 7040 ft 246 kts 225°
2026-04-15 16:18 46.21355 5.86767 6762 ft 242 kts 225°
2026-04-15 16:18 46.20164 5.85037 6538 ft 240 kts 225°
2026-04-15 16:19 46.18993 5.83335 6321 ft 238 kts 225°
2026-04-15 16:19 46.17829 5.81646 6006 ft 236 kts 225°
2026-04-15 16:19 46.16695 5.80001 5989 ft 225 kts 225°
2026-04-15 16:19 46.15628 5.78454 5983 ft 214 kts 225°
2026-04-15 16:20 46.14602 5.76968 5978 ft 204 kts 225°
2026-04-15 16:20 46.13619 5.75544 5983 ft 198 kts 225°
2026-04-15 16:20 46.12657 5.74151 6018 ft 195 kts 225°
2026-04-15 16:20 46.11689 5.72751 6004 ft 195 kts 225°
2026-04-15 16:21 46.10734 5.71370 6003 ft 188 kts 225°
2026-04-15 16:21 46.09810 5.70035 5998 ft 188 kts 225°
2026-04-15 16:21 46.08895 5.68713 6002 ft 187 kts 225°
2026-04-15 16:21 46.07983 5.67399 5995 ft 187 kts 225°
2026-04-15 16:22 46.06946 5.66363 5979 ft 179 kts 189°
2026-04-15 16:22 46.05793 5.66781 6011 ft 176 kts 142°
2026-04-15 16:22 46.05128 5.68223 5999 ft 176 kts 112°
2026-04-15 16:22 46.04683 5.69855 6000 ft 174 kts 110°
2026-04-15 16:23 46.04254 5.71498 5998 ft 174 kts 110°
2026-04-15 16:23 46.03827 5.73136 5990 ft 175 kts 110°
2026-04-15 16:23 46.03439 5.74796 5991 ft 175 kts 107°
2026-04-15 16:23 46.03085 5.76469 5992 ft 175 kts 106°
2026-04-15 16:24 46.02738 5.78143 5992 ft 174 kts 105°
2026-04-15 16:24 46.02765 5.79856 5974 ft 174 kts 67°
2026-04-15 16:24 46.03537 5.81193 5975 ft 176 kts 44°
2026-04-15 16:24 46.04385 5.82451 5982 ft 175 kts 46°
2026-04-15 16:25 46.05230 5.83703 5985 ft 174 kts 45°
2026-04-15 16:25 46.06067 5.84929 5975 ft 177 kts 45°
2026-04-15 16:25 46.06915 5.86171 5769 ft 172 kts 45°
2026-04-15 16:25 46.07758 5.87406 5551 ft 168 kts 45°
2026-04-15 16:26 46.08554 5.88572 5353 ft 162 kts 45°
2026-04-15 16:26 46.09335 5.89718 5145 ft 159 kts 45°
2026-04-15 16:26 46.10108 5.90853 4944 ft 159 kts 44°
2026-04-15 16:26 46.10889 5.91982 4737 ft 157 kts 44°
2026-04-15 16:27 46.11657 5.93108 4520 ft 157 kts 44°
2026-04-15 16:27 46.12419 5.94225 4310 ft 157 kts 44°
2026-04-15 16:27 46.13181 5.95339 4108 ft 155 kts 43°
2026-04-15 16:27 46.13942 5.96448 3897 ft 155 kts 43°
2026-04-15 16:28 46.14684 5.97538 3714 ft 156 kts 44°
2026-04-15 16:28 46.15442 5.98646 3502 ft 154 kts 44°
2026-04-15 16:28 46.16207 5.99757 3303 ft 155 kts 44°
2026-04-15 16:28 46.16962 6.00863 3094 ft 155 kts 45°
2026-04-15 16:29 46.17713 6.01965 2889 ft 154 kts 45°
2026-04-15 16:29 46.18459 6.03059 2685 ft 151 kts 45°
2026-04-15 16:29 46.19207 6.04156 2462 ft 153 kts 45°
2026-04-15 16:29 46.19934 6.05216 2261 ft 148 kts 46°
2026-04-15 16:30 46.20606 6.06201 2046 ft 131 kts 46°
2026-04-15 16:30 46.21249 6.07150 1894 ft 131 kts 46°
2026-04-15 16:30 46.21878 6.08086 1712 ft 131 kts 45°
2026-04-15 16:30 46.22520 6.09018 1500 ft 130 kts 46°
2026-04-15 16:31 46.23136 6.09941 1455 ft 122 kts 47°
2026-04-15 16:31 46.23654 6.10720 1423 ft 106 kts 47°
2026-04-15 16:31 46.23478 6.10463 1385 ft 0 kts 45°